Location: Falniów
(50.3639°N, 19.9642°E)
Time: 09:07:52
(UTC+00:00)

Cosmos 2181 Rocket - Pass Details

Date: 18 January 2026
Orbit: 952 x 1013 km, 82.9° (Epoch: 16 February)

Event Time Altitude Azimuth Distance (km) Brightness Sun altitude
Rises 03:00:43 0° 351° (N) 3,722 7.0 -33.1°
Reaches altitude 10° 03:03:17 10° 355° (N) 2,777 6.4 -32.7°
Maximum altitude 03:09:38 63° 77° (ENE) 1,115 4.4 -31.7°
Drops below altitude 10° 03:15:59 10° 158° (SSE) 2,786 6.5 -30.6°
Sets 03:18:33 0° 162° (SSE) 3,735 7.2 -30.2°
